Overview Statistics Trail Chart Weather Telemetry Raw packets
 

This is the latest recevied weather packets stored in our database for station/object K5BOU. If no packets are shown the sender has not sent any weather packets the latest 10 day(s).

<< 67 68 69 70 71 72 73 >>
Time Temp. Humidity Pressure Rain* Wind** Luminosity Snow
1788187924 30° C 86% 1015.2 hPa 0 mm - 505 W/m² -
1788187620 30° C 87% 1015 hPa 0 mm - 417 W/m² -
1788187316 30.56° C 85% 1015.1 hPa 0 mm - 281 W/m² -
1788187015 31.67° C 83% 1015 hPa 0 mm - 308 W/m² -
1788186710 31.67° C 84% 1014.9 hPa 0 mm - 320 W/m² -
1788186406 30.56° C 87% 1015.1 hPa 0 mm - 291 W/m² -
1788186102 30.56° C 88% 1015.2 hPa 0 mm - 268 W/m² -
1788185801 30° C 89% 1014.9 hPa 0 mm - 275 W/m² -
1788185496 30° C 90% 1014.9 hPa 0 mm - 255 W/m² -
1788185195 30° C 90% 1014.9 hPa 0 mm - 263 W/m² -
1788184890 29.44° C 91% 1014.8 hPa 0 mm - 244 W/m² -
1788184588 30° C 90% 1014.9 hPa 0 mm - 72 W/m² -
1788184284 28.89° C 93% 1014.9 hPa 0 mm - 61 W/m² -
1788183980 28.89° C 92% 1014.7 hPa 0 mm - 58 W/m² -
1788183674 28.89° C 93% 1014.8 hPa 0 mm - 56 W/m² -
1788183374 27.78° C 98% 1014.8 hPa 0 mm - 54 W/m² -
1788183069 27.22° C 99% 1014.8 hPa 0 mm - 51 W/m² -
1788182765 26.67° C 99% 1014.9 hPa 0 mm - 65 W/m² -
1788182464 26.67° C 99% 1014.6 hPa 0 mm - 55 W/m² -
1788182158 26.11° C 99% 1014.8 hPa 0 mm - 49 W/m² -
1788181855 25.56° C 99% 1014.8 hPa 0 mm - 52 W/m² -
1788181549 25.56° C 99% 1014.9 hPa 0 mm - 49 W/m² -
1788181245 25° C 99% 1014.6 hPa 0 mm - 47 W/m² -
1788180938 25° C 99% 1014.5 hPa 0 mm - 43 W/m² -
1788180634 24.44° C 99% 1014.3 hPa 0 mm - 38 W/m² -

* Rain latest hour (hover to see other rain measurements)
** Current wind speed in m/s (hover to see current wind gust speed)